Powrót do katalogu

CZ-6A DEB

AktywnyPO
NORAD 61130·DEBRIS·🇨🇳 China

Wystrzelony Aug 6, 2024 z Taiyuan Satellite Launch Center

Loading…

Następne Przeloty (najbliższe 24 godziny)

TLE

ŚwieżeSource: Space-Track

Epoka: Sep 14, 2026, 08:33 UTC

1 61130U 24140PY  26257.35629047  .00001701  00000-0  62259-3 0  9996
2 61130  88.6248 228.9276 0067375 146.3276 214.2229 14.31200660107612

Śledź CZ-6A DEB w czasie rzeczywistym z AllMySat

Download on the App Store